TimeCDT,TemperatureF,Dew PointF,Humidity,Sea Level PressureIn,VisibilityMPH,Wind Direction,Wind SpeedMPH,Gust SpeedMPH,PrecipitationIn,Events,Conditions,WindDirDegrees,DateUTC
12:15 AM,33.8,32.0,93,30.00,7.0,NE,13.8,24.2,N/A,Rain-Thunderstorm,Light Thunderstorms and Rain,40,2013-04-10 05:15:00
12:35 AM,33.8,32.0,93,30.02,4.0,NE,15.0,19.6,0.02,Rain,Light Rain,40,2013-04-10 05:35:00
12:55 AM,33.8,32.0,93,30.08,7.0,North,13.8,17.3,0.02,Rain,Rain,350,2013-04-10 05:55:00
1:15 AM,32.0,32.0,100,30.02,2.0,NNE,17.3,26.5,0.06,Snow-Thunderstorm,Light Thunderstorms and Snow,20,2013-04-10 06:15:00
1:35 AM,32.0,32.0,100,30.05,1.5,North,17.3,27.6,0.12,Snow-Thunderstorm,Light Thunderstorms and Snow,10,2013-04-10 06:35:00
1:55 AM,32.0,32.0,100,30.01,7.0,NNE,18.4,25.3,0.16,,Overcast,20,2013-04-10 06:55:00
2:15 AM,32.0,32.0,100,29.97,7.0,NNE,17.3,26.5,N/A,,Overcast,30,2013-04-10 07:15:00
2:35 AM,32.0,32.0,100,30.00,10.0,North,13.8,21.9,0.01,Thunderstorm,Overcast,10,2013-04-10 07:35:00
2:55 AM,32.0,32.0,100,30.01,3.0,North,12.7,24.2,0.07,Snow,Light Snow,10,2013-04-10 07:55:00
3:15 AM,32.0,32.0,100,29.98,2.0,NNE,13.8,23.0,0.06,Snow-Thunderstorm,Light Thunderstorms and Snow,20,2013-04-10 08:15:00
3:35 AM,32.0,32.0,100,29.97,10.0,NNE,12.7,17.3,0.08,,Overcast,30,2013-04-10 08:35:00
3:55 AM,32.0,32.0,100,29.97,3.0,NE,12.7,19.6,0.08,,Overcast,40,2013-04-10 08:55:00
4:15 AM,32.0,32.0,100,29.97,1.5,NNE,10.4,19.6,0.02,Snow,Light Snow,20,2013-04-10 09:15:00
4:35 AM,32.0,32.0,100,30.04,2.5,North,10.4,17.3,0.08,Snow,Light Snow,350,2013-04-10 09:35:00
4:55 AM,32.0,32.0,100,30.08,4.0,North,11.5,-,0.09,Thunderstorm,Overcast,350,2013-04-10 09:55:00
5:15 AM,32.0,32.0,100,29.96,1.5,ENE,13.8,-,0.12,Snow-Thunderstorm,Light Thunderstorms and Snow,60,2013-04-10 10:15:00
5:35 AM,32.0,32.0,100,29.91,3.0,ENE,12.7,18.4,0.17,Snow,Light Snow,70,2013-04-10 10:35:00
5:55 AM,32.0,32.0,100,30.00,10.0,North,8.1,-,0.17,,Overcast,360,2013-04-10 10:55:00
6:15 AM,32.0,32.0,100,30.01,10.0,NNE,9.2,-,N/A,Thunderstorm,Overcast,20,2013-04-10 11:15:00
6:35 AM,32.0,32.0,100,29.97,10.0,NNE,9.2,16.1,N/A,,Overcast,20,2013-04-10 11:35:00
6:55 AM,32.0,32.0,100,29.96,10.0,NNE,9.2,-,0.01,,Overcast,30,2013-04-10 11:55:00
7:15 AM,32.0,32.0,100,29.95,10.0,NNE,12.7,-,N/A,,Overcast,30,2013-04-10 12:15:00
7:35 AM,32.0,32.0,100,30.01,10.0,NNE,8.1,-,N/A,,Overcast,20,2013-04-10 12:35:00
7:55 AM,32.0,32.0,100,30.01,10.0,NE,5.8,-,N/A,,Overcast,40,2013-04-10 12:55:00
8:15 AM,32.0,32.0,100,30.00,10.0,ENE,8.1,-,N/A,,Overcast,60,2013-04-10 13:15:00
8:35 AM,32.0,32.0,100,29.92,10.0,NNE,11.5,-,N/A,,Overcast,30,2013-04-10 13:35:00
8:55 AM,32.0,32.0,100,29.92,10.0,NNE,9.2,18.4,N/A,,Overcast,30,2013-04-10 13:55:00
9:15 AM,33.8,33.8,100,29.94,10.0,NNE,8.1,-,N/A,,Overcast,30,2013-04-10 14:15:00
9:35 AM,33.8,33.8,100,29.98,10.0,NNE,10.4,-,N/A,,Overcast,20,2013-04-10 14:35:00
9:55 AM,33.8,33.8,100,29.98,10.0,NNE,11.5,19.6,N/A,,Overcast,30,2013-04-10 14:55:00
10:15 AM,33.8,33.8,100,30.04,10.0,North,11.5,19.6,N/A,,Overcast,360,2013-04-10 15:15:00
10:35 AM,33.8,33.8,100,30.02,10.0,NNE,13.8,20.7,N/A,,Overcast,20,2013-04-10 15:35:00
10:55 AM,33.8,33.8,100,30.02,4.0,North,13.8,20.7,N/A,,Overcast,10,2013-04-10 15:55:00
11:15 AM,33.8,33.8,100,30.06,3.0,NE,9.2,17.3,N/A,,Overcast,40,2013-04-10 16:15:00
11:35 AM,33.8,33.8,100,30.06,2.5,NE,10.4,-,N/A,,Overcast,50,2013-04-10 16:35:00
12:15 PM,33.8,33.8,100,30.01,5.0,NNE,16.1,21.9,N/A,,Overcast,30,2013-04-10 17:15:00
12:35 PM,33.8,33.8,100,29.98,5.0,NNE,18.4,24.2,N/A,,Overcast,20,2013-04-10 17:35:00
12:55 PM,33.8,33.8,100,29.98,5.0,NNE,17.3,25.3,N/A,,Overcast,20,2013-04-10 17:55:00
1:15 PM,33.8,33.8,100,29.98,7.0,NNE,17.3,27.6,N/A,,Overcast,30,2013-04-10 18:15:00
1:35 PM,35.6,33.8,93,29.99,10.0,NNE,15.0,26.5,N/A,,Overcast,30,2013-04-10 18:35:00
1:55 PM,35.6,33.8,93,30.02,10.0,NE,15.0,20.7,N/A,,Overcast,40,2013-04-10 18:55:00
2:15 PM,35.6,33.8,93,30.02,10.0,NNE,12.7,19.6,N/A,,Overcast,30,2013-04-10 19:15:00
2:35 PM,35.6,33.8,93,30.03,10.0,NNE,11.5,17.3,N/A,,Overcast,30,2013-04-10 19:35:00
2:55 PM,35.6,33.8,93,30.05,10.0,NNE,10.4,17.3,N/A,,Overcast,30,2013-04-10 19:55:00
3:15 PM,35.6,33.8,93,30.06,4.0,NNE,8.1,-,N/A,Rain,Light Rain,30,2013-04-10 20:15:00
3:35 PM,35.6,35.6,100,30.04,3.0,NNE,10.4,-,0.01,,Drizzle,30,2013-04-10 20:35:00
3:55 PM,35.6,35.6,100,30.03,3.0,NNE,11.5,19.6,0.01,Rain,Light Rain,30,2013-04-10 20:55:00
4:15 PM,35.6,35.6,100,30.01,4.0,NE,11.5,17.3,0.01,,Drizzle,40,2013-04-10 21:15:00
4:35 PM,35.6,35.6,100,29.98,7.0,NNE,13.8,19.6,0.01,,Light Drizzle,30,2013-04-10 21:35:00
4:55 PM,35.6,35.6,100,29.95,10.0,NE,17.3,26.5,0.01,,Light Drizzle,40,2013-04-10 21:55:00
5:15 PM,35.6,35.6,100,29.94,10.0,NE,18.4,23.0,N/A,,Overcast,40,2013-04-10 22:15:00
5:35 PM,35.6,33.8,93,29.94,10.0,NE,15.0,23.0,N/A,,Overcast,40,2013-04-10 22:35:00
5:55 PM,35.6,33.8,93,29.94,10.0,NNE,12.7,19.6,N/A,,Overcast,30,2013-04-10 22:55:00
6:15 PM,35.6,33.8,93,29.96,10.0,NE,11.5,18.4,N/A,,Overcast,40,2013-04-10 23:15:00
6:35 PM,35.6,32.0,87,29.95,10.0,NE,16.1,-,N/A,,Drizzle,50,2013-04-10 23:35:00
6:55 PM,35.6,32.0,87,29.96,10.0,NE,16.1,23.0,N/A,Rain,Light Rain,50,2013-04-10 23:55:00
7:15 PM,35.6,32.0,87,29.95,10.0,NE,13.8,19.6,N/A,,Overcast,40,2013-04-11 00:15:00
7:35 PM,35.6,32.0,87,29.95,10.0,NE,13.8,23.0,N/A,,Overcast,40,2013-04-11 00:35:00
7:55 PM,33.8,32.0,93,29.95,10.0,NNE,13.8,20.7,N/A,,Overcast,30,2013-04-11 00:55:00
8:15 PM,35.6,32.0,87,29.97,10.0,NNE,19.6,26.5,N/A,,Overcast,30,2013-04-11 01:15:00
8:35 PM,35.6,32.0,87,29.95,10.0,NNE,16.1,23.0,N/A,,Overcast,30,2013-04-11 01:35:00
8:55 PM,35.6,32.0,87,29.97,10.0,NE,13.8,23.0,N/A,,Overcast,40,2013-04-11 01:55:00
9:15 PM,35.6,32.0,87,29.98,10.0,NE,17.3,24.2,N/A,,Overcast,50,2013-04-11 02:15:00
9:35 PM,35.6,32.0,87,29.99,10.0,NE,12.7,20.7,N/A,,Overcast,50,2013-04-11 02:35:00
9:55 PM,35.6,32.0,87,29.97,7.0,NE,16.1,21.9,N/A,,Overcast,50,2013-04-11 02:55:00
10:15 PM,35.6,32.0,87,29.95,10.0,NE,15.0,24.2,N/A,,Overcast,50,2013-04-11 03:15:00
10:35 PM,35.6,32.0,87,29.95,10.0,NE,16.1,21.9,N/A,,Overcast,40,2013-04-11 03:35:00
10:55 PM,35.6,32.0,87,29.95,10.0,ENE,17.3,23.0,N/A,,Overcast,60,2013-04-11 03:55:00
11:15 PM,35.6,32.0,87,29.95,10.0,NE,13.8,23.0,N/A,Rain,Light Rain,40,2013-04-11 04:15:00
11:35 PM,35.6,32.0,87,29.95,5.0,ENE,16.1,21.9,N/A,Rain,Light Rain,60,2013-04-11 04:35:00
11:55 PM,35.6,32.0,87,29.93,4.0,NE,18.4,25.3,0.01,Rain,Light Rain,50,2013-04-11 04:55:00